Content
SEND FEEDBACK

Daily
Averages
Monthly
Summary
Spain

A CORUŅA - DOWNTOWN, SPAIN


Home > Europe > Spain
Elevation: 220 feet     Latitude: 43 22N     Longitude: 008 25W

WEATHER
 
SELECT A DAY
Number of Records: 269,874;   Date Range: 7/1/96 - 7/20/14
 
SHARE

PRINT THIS DATA

[ ← Previous Day ]
WEATHER ALMANAC - SEPTEMBER 1, 2013
[ Next Day → ]
[ °C ]   °F
Weather ElementAverageHighLow
Temperature77 °F89.6 °F (2:30 pm)60.8 °F (8:00 am)
Dewpoint62.7 °F66.2 °F (6:30 pm)59 °F (7:30 am)
Humidity64.1 %94 % (5:30 am)38 % (4:00 pm)
Barometer30.20 in30.27 in (12:30 am)30.15 in (5:30 pm)
Wind Speed4.3 mph11.5 mph (8:00 pm)
Weather ElementAverage
Wind DirectionNNE (29.2 °)

Weather ElementTotal
Precipitation---
Cooling Degree Days10.2 (Base 65)
Growing Degree Days25.2 (Base 50)
Averaged from 39 records on September 1, 2013
WEATHER CONDITIONS BREAKOUT
WIND DIRECTION BREAKOUT
WEATHER BY HOUR - SEPTEMBER 1, 2013
[ °C ]   °F
Local TimeTemperatureDewpointHumidityBarometerVisibilityWind DirectionWind SpeedGust SpeedPrecipitationEventsConditions
12:30 AM71.6 °F62.6 °F73 %30.27 inNNE (20°)5.8 mphClear
1:00 AM71.6 °F62.6 °F73 %30.27 inNorth (10°)5.8 mphClear
5:30 AM62.6 °F60.8 °F94 %30.21 inVariable1.2 mphClear
6:00 AM62.6 °F60.8 °F94 %30.21 inCalmClear
6:30 AM62.6 °F60.8 °F94 %30.21 inVariable2.3 mphClear
7:00 AM62.6 °F60.8 °F94 %30.21 inCalmClear
7:30 AM62.6 °F59.0 °F88 %30.21 inCalmClear
8:00 AM60.8 °F59.0 °F94 %30.24 inCalmClear
8:30 AM60.8 °F59.0 °F94 %30.24 inCalmClear
9:00 AM66.2 °F62.6 °F88 %30.24 inCalmClear
9:30 AM68.0 °F62.6 °F83 %30.24 inCalmClear
10:00 AM71.6 °F62.6 °F73 %30.24 inCalmClear
10:30 AM73.4 °F64.4 °F73 %30.24 inVariable1.2 mphClear
11:00 AM75.2 °F64.4 °F69 %30.24 inVariable2.3 mphClear
11:30 AM77.0 °F62.6 °F61 %30.24 inVariable2.3 mphClear
12:00 PM80.6 °F62.6 °F54 %30.21 inVariable2.3 mphClear
12:30 PM80.6 °F62.6 °F54 %30.21 inVariable2.3 mphClear
1:00 PM82.4 °F62.6 °F51 %30.21 inVariable2.3 mphClear
1:30 PM84.2 °F62.6 °F48 %30.21 inVariable2.3 mphClear
2:00 PM86.0 °F60.8 °F43 %30.21 inVariable3.5 mphClear
2:30 PM89.6 °F62.6 °F40 %30.18 inNE (40°)8.1 mphClear
3:00 PM89.6 °F62.6 °F40 %30.18 inNE (40°)6.9 mphClear
3:30 PM89.6 °F62.6 °F40 %30.18 inENE (60°)8.1 mphClear
4:00 PM89.6 °F60.8 °F38 %30.18 inENE (60°)6.9 mphClear
4:30 PM89.6 °F62.6 °F40 %30.18 inNE (50°)8.1 mphClear
5:00 PM89.6 °F62.6 °F40 %30.18 inNE (50°)8.1 mphClear
5:30 PM89.6 °F62.6 °F40 %30.15 inNE (40°)9.2 mphClear
6:00 PM87.8 °F64.4 °F46 %30.15 inNorth (350°)6.9 mphClear
6:30 PM86.0 °F66.2 °F51 %30.15 inNorth (10°)9.2 mphClear
7:00 PM86.0 °F64.4 °F48 %30.15 inNNE (30°)9.2 mphClear
7:30 PM84.2 °F64.4 °F51 %30.18 inVariable8.1 mphClear
8:00 PM80.6 °F64.4 °F58 %30.18 inENE (60°)11.5 mphClear
8:30 PM78.8 °F64.4 °F61 %30.18 inENE (70°)10.4 mphClear
9:00 PM78.8 °F64.4 °F61 %30.18 inEast (80°)9.2 mphClear
9:30 PM77.0 °F64.4 °F65 %30.18 inEast (90°)4.6 mphClear
10:00 PM75.2 °F64.4 °F69 %30.21 inVariable2.3 mphClear
10:30 PM73.4 °F64.4 °F73 %30.21 inEast (80°)4.6 mphClear
11:00 PM73.4 °F64.4 °F73 %30.21 inVariable2.3 mphClear
11:30 PM73.4 °F62.6 °F69 %30.21 inVariable2.3 mphClear
Hourly data recorded from LECO, located miles away from A Coruņa - Downtown, Spain







STORIES FROM OUR PARTNERS